User: anonymous   Login
Location: Ellingshausen
(50.5460°N, 10.4723°E)
Time: 05:27:39
(UTC+00:00)
Language:

Cosmos 2228 Rocket - Orbit

View from above orbital plane
View from above orbital plane
View from above satellite
View from above satellite

Ground track
Ground track

The orbit is defined by the following mean orbital elements,

1 22287U          26074.84787852 +.00000000 +00000-0 +45543-4 0 00007
2 22287  82.5275 347.1320 0022781 319.2886  40.6624 14.80057341    04
Epoch (UTC): 15 March 2026 20:20:56
Eccentricity: 0.0022781
inclination: 82.5275°
perigee height: 613 km
apogee height: 645 km
right ascension of ascending node: 347.1320°
argument of perigee: 319.2886°
revolutions per day: 14.80057341
mean anomaly at epoch: 40.6624°

The dashed part of the orbit path shows where the satellite is in the earth's shadow,  

DLR